Regional Weather Roundup
Issued by NWS

Home | Current Version | Previous Version | Text Only | Print | Product List | Glossary Off
Versions: 1 2 3 4 5 6 7 8 9 10 11 12 13 14 15 16 17 18 19 20 21 22 23 24 25 26 27 28 29 30 31 32 33 34 35 36 37 38 39 40 41 42 43 44 45 46 47 48 49 50

000
ASUS45 KSLC 050310
RWRUT

UTAH REGIONAL WEATHER ROUNDUP
NATIONAL WEATHER SERVICE SALT LAKE CITY UT
900 PM MDT WED MAY 04 2016

UTZ001>011-023>025-050400-

NORTHERN UTAH

CITY           SKY/WX    TMP DP  RH WIND       PRES   REMARKS
BRIGHAM CITY   MOCLDY    67  41  38 E8        29.97S
HILL AFB       MOCLDY    69  33  27 NE3       29.98F
LOGAN          CLOUDY    63  40  42 E5        29.99S
OGDEN          MOCLDY    67  36  31 N6        29.95F
PROVO AIRPORT  MOCLDY    70  34  26 SE9       29.96S
SALT LAKE CITY MOCLDY    71  38  29 N7        29.93F
VERNAL         CLEAR     62  28  27 SW6       30.07R
WENDOVER       CLOUDY    68  39  34 NE6       29.92S
HEBER CITY     CLOUDY    57  36  44 SE3       30.03S

$$

UTZ012>022-026-027-050400-

SOUTHERN/CENTRAL UTAH

CITY           SKY/WX    TMP DP  RH WIND       PRES   REMARKS
BLANDING       CLEAR     63  27  25 NE5       30.19S
BRYCE CANYON   MOCLDY    51  28  41 SE3       30.17S
CEDAR CITY     MOCLDY    64  33  31 S5        30.00R
DELTA          MOCLDY    70  32  24 N5        29.96R
HANKSVILLE     CLEAR     68  30  24 CALM      30.02R
MILFORD        PTCLDY    63  33  32 S6        29.95S
MOAB/CYNLANDS  CLEAR     70  29  21 CALM      30.01R
PRICE          CLEAR     64  24  21 S7        30.09S
ST GEORGE      MOCLDY    81  32  17 W3        29.85S
KANAB          MOCLDY    66  34  30 S3        30.00

$$

REGIONAL REPORTS     COLORADO/ARIZONA

CITY           SKY/WX    TMP DP  RH WIND       PRES   REMARKS
CRAIG, CO      CLEAR     54  37  52 N3        30.14R
GRAND JUNCTION CLEAR     59  40  49 CALM      30.05S
RIFLE          CLEAR     60  32  34 SE9       30.10R
MONTROSE       CLEAR     64  31  28 SW6       30.13R
CORTEZ         CLEAR     57  28  33 N3        30.15R
PAGE, AZ       PTCLDY    76  25  15 SE7       29.94S
GRAND CANYON   PTCLDY    59  27  29 S5        30.12R
KINGMAN        MOCLDY    76  24  14 S10       29.88R
FLAGSTAFF      CLEAR     53  28  38 CALM      30.16S

$$

REGIONAL REPORTS    NEVADA/IDAHO/WYOMING

CITY           SKY/WX    TMP DP  RH WIND       PRES   REMARKS
LAS VEGAS, NV  MOCLDY    87  24  10 S6        29.73R
ELY            MOCLDY    58  27  30 SE10      30.03R
ELKO           MOCLDY    65  38  36 CALM      29.90F
POCATELLO, ID  CLOUDY    60  36  40 SE8       29.98F
BURLEY         CLOUDY    64  37  36 CALM      29.91F
EVANSTON, WY   CLOUDY    60  29  30 VRB5      30.14R
ROCK SPRINGS   CLOUDY    56  28  34 S8        30.14S
KEMMERER         N/A     59  23  25 S6        30.14S

$$



USA.gov is the U.S. government's official web portal to all federal, state and local government web resources and services.